FALCON 9 DEB (52653 NORAD) Tracking and Keplerian Element Data

This shows tracking and keplerian element data for the satellite.

Feedback or suggestion? Click here.




ElementValue
Catalog52653
NameFALCON 9 DEB
Epoch Orbit681
Epoch Day177.35133923
Epoch Year2022
RAAN220.7692
Inclination53.1928
Eccentricity0.0004727
Argument of Perigee305.8275
Mean Anonmoly54.2338
Mean Motion16.48401104
Decay Rate0.12831943
L11 52653U 22052BH 22177.35133923 .12831943 12629-4 19226-3 0 9998
L22 52653 53.1928 220.7692 0004727 305.8275 54.2338 16.48401104 6818

Live tracking and technical data element details for FALCON 9 DEB (NORAD 52653). FALCON 9 DEB can be tracked NOW for your location showing map with azimuth and elevation plus other details from your city location.

Track the satellite on the map from your city or location and see movement details for azimuth, elevation, latitude, longitude, range, height, and movement on the map or in text.







IsCatalogInMostPopularTable: catalog: 52653, numindb: 4
Update: records affected: 1



GetName: 52653 FALCON 9 DEB

Hit Count: updated at: Sun, 14 Aug 2022 00:59:24 GMT